Lid_Strength_Index
1 0 0 0 0 -0 -0 -0 -0 -0 -0 -0 -0 -0 -0 -0 0 3 8 3 2 -2 0 6 6 7 7 8 8 11 14 16 14 14 13 11 11 11 11 12 11 10 8 10 8
1 1 0 0 0 -0 -0 -0 -0 -0 -1 -0 -0 -0 -0 -0 4 6 1 -3 -3 -2 6 8 8 8 9 9 9 12 15 14 12 12 12 11 12 11 11 11 12 12 10 10 9
1 1 0 0 0 0 -0 -0 -1 -1 -1 -0 -0 -0 -0 1 8 8 -1 -2 -2 -0 5 6 7 8 11 9 10 12 14 12 11 10 11 11 11 11 12 12 11 11 10 10 11
0 0 0 0 0 0 -0 -0 -1 -1 -1 0 0 0 0 4 11 6 -1 -2 -2 4 6 7 8 10 12 12 10 12 10 11 9 9 11 11 10 11 12 10 10 11 11 12 12
0 0 0 0 0 0 -0 -1 -1 -1 -0 0 0 0 4 9 8 2 -1 -1 4 5 7 8 9 10 12 11 11 12 11 10 9 10 11 10 11 12 11 10 11 11 11 12 12
0 0 0 0 0 0 -0 -1 -1 -1 0 0 0 1 8 11 3 1 3 5 5 7 8 8 9 9 11 12 12 11 11 11 10 10 11 12 13 13 11 11 12 12 13 13 13
-0 0 0 1 0 0 -0 -1 -1 -1 0 0 0 2 7 9 3 2 4 5 6 7 8 8 8 10 11 12 11 12 13 12 12 12 12 12 14 13 11 12 13 14 14 14 14
-0 0 0 0 0 0 -0 -0 -0 -0 0 1 0 5 10 6 4 3 5 6 6 7 7 8 8 9 11 11 12 14 15 16 13 13 13 13 14 12 11 12 14 14 15 14 14
1 1 1 1 1 0 0 -0 0 0 0 -0 4 7 9 5 7 7 7 8 8 8 8 7 9 11 12 15 16 16 18 17 14 12 13 14 15 12 11 13 15 15 15 15 15
1 1 1 1 1 1 1 1 2 3 3 3 4 10 9 10 8 8 8 7 9 9 10 10 13 15 15 17 19 18 18 17 17 14 14 15 15 13 12 13 15 16 16 15 15
0 1 1 1 1 0 1 5 7 7 7 8 10 10 9 9 8 9 8 9 9 11 14 13 16 17 16 15 16 17 17 17 16 13 15 15 15 13 13 14 15 15 15 15 15
1 1 0 0 0 0 3 6 7 7 9 7 7 9 8 9 10 10 9 11 12 14 14 15 17 14 14 15 15 17 18 17 15 14 15 15 15 14 14 14 14 15 15 15 15
2 2 2 1 1 2 5 6 7 8 11 9 7 7 8 8 10 10 9 12 13 15 15 16 14 13 14 15 16 16 17 17 16 15 15 16 16 15 15 14 14 14 15 15 16
1 2 1 1 2 4 6 6 6 8 14 12 11 10 10 9 11 10 10 12 14 14 15 16 14 14 15 15 15 17 14 14 15 17 18 16 20 16 16 16 15 16 16 16 16
2 1 1 1 4 5 5 6 7 9 20 12 12 10 11 10 12 13 12 13 15 14 15 15 15 16 15 14 13 15 14 15 16 17 18 18 19 18 16 17 16 16 16 16 16
3 2 1 1 2 4 6 6 7 12 19 14 13 13 13 13 14 13 13 13 13 14 15 14 14 14 14 14 13 14 15 16 17 18 21 17 18 19 17 16 16 16 16 15 15
3 2 2 1 4 5 6 7 13 17 12 15 16 14 15 16 15 14 15 16 17 17 17 16 15 15 14 15 15 15 16 19 21 22 21 18 19 17 16 15 14 15 16 15 15
3 2 2 2 4 6 5 9 17 13 14 14 15 15 16 15 15 15 16 17 16 16 18 17 18 15 14 14 15 16 16 19 23 23 21 18 19 16 16 15 14 14 15 15 15
3 2 2 2 4 5 7 15 15 12 11 14 14 16 16 15 15 16 17 17 15 15 15 17 17 15 15 14 13 16 17 15 18 25 22 18 18 16 16 16 15 15 14 15 14
3 4 4 4 4 5 10 13 12 9 10 11 15 14 17 14 15 16 17 14 14 14 13 15 17 15 14 14 14 14 13 17 18 23 23 20 19 17 17 16 15 15 15 14 13
4 8 6 4 4 7 13 12 10 9 9 11 13 13 14 14 14 16 14 14 13 14 13 14 15 16 15 15 15 15 16 15 14 17 21 23 19 15 14 14 15 14 13 14 14
7 10 6 4 10 9 12 10 10 10 9 10 11 11 12 13 13 14 14 13 12 12 14 12 14 19 16 15 14 15 14 14 16 18 18 17 17 13 13 12 12 13 12 12 13
10 10 7 7 12 13 11 11 10 11 11 11 11 11 11 13 14 14 14 12 12 12 12 12 16 22 18 16 15 15 14 14 15 17 21 19 18 13 13 13 12 12 12 12 12
10 13 11 9 10 10 12 12 12 10 11 10 11 11 12 13 12 14 14 13 12 12 9 9 14 15 17 17 15 17 15 15 15 17 17 16 15 15 13 12 12 12 12 12 12
10 12 11 14 12 11 11 11 12 13 11 10 12 11 12 14 13 14 14 13 13 11 12 12 15 16 15 15 15 16 16 16 17 15 16 15 15 14 12 12 12 11 11 11 11
13 13 13 13 11 12 11 13 13 11 12 12 12 12 11 12 13 15 13 14 14 15 14 14 17 15 17 16 15 16 15 15 15 15 16 15 15 12 13 13 14 13 13 11 10
11 12 12 13 13 12 13 12 12 11 12 12 11 12 12 11 12 13 12 12 12 14 15 15 17 19 17 19 19 21 20 16 15 15 14 16 13 16 14 13 13 13 13 13 12